Location: Antioch Baptist Church
(32.6696°N, 85.7327°W)
Time: 00:57:06
(UTC+00:00)

Cosmos 1263 - Pass Details

Date: 14 July 2020
Orbit: 384 x 1341 km, 82.9° (Epoch: 12 August)

Event Time Altitude Azimuth Distance (km) Brightness Sun altitude
Rises 09:06:23 0° 349° (N) 2,272 8.4 -18.1°
Reaches altitude 10° 09:08:18 10° 345° (NNW) 1,432 7.3 -17.8°
Maximum altitude 09:11:16 57° 265° (W) 495 4.3 -17.4°
Enters shadow 09:11:42 51° 228° (SW) 540 4.3 -17.3°
